SR9WXJ Weather Reports


time (UTC)temp
C
wind
direction
speed
KPH
gust
KPH
rain 1hr
cm
rain 24hr
cm
rain mn
cm
humidity
%
barometer
mb
20260508012924 10 74 0.0 0.0 0.00 0.00 0.00 100
20260508011713 10 69 0.0 0.0 0.00 0.00 0.00 100
20260508010505 10 61 0.0 0.0 0.00 0.00 0.00 100
20260508005257 10 86 0.0 0.0 0.00 0.00 0.00 100
20260508004046 10 108 0.0 0.0 0.00 0.00 0.00 100
20260508001936 10 94 3.2 3.2 0.00 0.00 0.00 100 802.2
20260508000728 10 94 3.2 3.2 0.00 0.00 0.00 100 802.2
20260507235516 10 97 3.2 3.2 0.00 0.00 0.00 100 802.2
20260507234308 10 97 3.2 3.2 0.00 0.00 0.00 100 802.2
20260507233100 10 80 3.2 3.2 0.00 0.00 0.00 100 802.2
20260507231849 10 80 3.2 3.2 0.00 0.00 0.00 100 802.2
20260507230638 10 237 3.2 3.2 0.00 0.00 0.00 100 802.2
20260507225428 10 237 3.2 3.2 0.00 0.00 0.00 100 802.2
20260507224230 10 335 3.2 3.2 0.00 0.00 0.00 100 802.2
20260507223021 10 15 3.2 4.8 0.00 0.00 0.00 100 802.2
20260507221810 10 73 3.2 4.8 0.00 0.00 0.00 100 802.2
20260507220601 10 127 3.2 3.2 0.00 0.00 0.00 100 802.2
20260507215353 10 71 3.2 3.2 0.00 0.00 0.00 100 802.2
20260507214145 10 107 3.2 3.2 0.00 0.00 0.00 100 802.2
20260507212934 10 20 3.2 3.2 0.00 0.00 0.00 100 802.2
20260507211722 10 74 3.2 3.2 0.00 0.00 0.00 100 802.2
20260507210514 10 4 3.2 3.2 0.00 0.00 0.00 100 802.2
20260507205316 10 161 3.2 3.2 0.00 0.00 0.00 100 802.2
20260507204104 10 354 3.2 3.2 0.00 0.00 0.00 100 802.2
20260507202856 10 94 3.2 3.2 0.00 0.00 0.00 100 802.2
20260507201647 10 39 3.2 4.8 0.00 0.00 0.00 100 802.2
20260507200439 10 97 3.2 3.2 0.00 0.00 0.00 100 802.2
20260507195229 10 91 3.2 3.2 0.00 0.00 0.00 100 802.2
20260507194020 10 116 3.2 3.2 0.00 0.00 0.00 100 802.2
20260507192811 10 47 3.2 3.2 0.00 0.00 0.00 100 802.2
20260507191604 10 353 3.2 3.2 0.00 0.00 0.00 100 802.2
20260507190348 10 63 3.2 3.2 0.00 0.00 0.00 100 802.2
20260507185136 10 56 3.2 3.2 0.00 0.00 0.00 100 802.2
20260507183928 10 56 3.2 3.2 0.00 0.00 0.00 100 802.2
20260507182718 10 40 3.2 3.2 0.00 0.00 0.00 100 802.2
20260507182218 10 67 3.2 3.2 0.00 0.00 0.00 100 802.2
20260507181704 10 97 3.2 3.2 0.00 0.00 0.00 100 802.2
20260507181205 10 53 3.2 3.2 0.00 0.00 0.00 100 802.2
20260507180651 10 13 3.2 3.2 0.00 0.00 0.00 100 802.2
20260507175629 10 55 6.4 8.0 0.00 0.00 0.00 100 802.2
20260507174618 10 71 3.2 4.8 0.00 0.00 0.00 100 802.2
20260507174107 10 223 3.2 3.2 0.00 0.00 0.00 100 802.2
20260507173556 10 86 3.2 3.2 0.00 0.00 0.00 100 802.2
20260507173045 10 82 3.2 3.2 0.00 0.00 0.00 100 802.2
20260507172545 10 154 3.2 3.2 0.00 0.00 0.00 100 802.2
20260507172034 10 86 3.2 3.2 0.00 0.00 0.00 100 802.2
20260507171525 10 100 3.2 3.2 0.00 0.00 0.00 100 802.2
20260507171012 10 97 3.2 3.2 0.00 0.00 0.00 100 802.2
20260507170500 10 107 3.2 4.8 0.00 0.00 0.00 100 802.2
20260507170000 10 243 3.2 4.8 0.00 0.00 0.00 100 802.2
20260507165449 10 267 3.2 3.2 0.00 0.00 0.00 100 802.2
20260507164938 10 111 3.2 3.2 0.00 0.00 0.00 100 802.2
20260507163416 10 107 3.2 3.2 0.00 0.00 0.00 100 799.1
20260507162905 10 108 3.2 3.2 0.00 0.00 0.00 100 795.6
20260507162354 10 97 3.2 3.2 0.00 0.00 0.00 100 795.6
20260507161856 10 102 3.2 4.8 0.00 0.00 0.00 100 795.6
20260507161341 10 100 3.2 4.8 0.00 0.00 0.00 100 795.6
20260507160831 10 83 3.2 4.8 0.00 0.00 0.00 100 795.6
20260507160320 11 108 3.2 3.2 0.00 0.00 0.00 100 795.6
20260507155809 11 107 3.2 4.8 0.00 0.00 0.00 100 795.6
20260507155308 11 121 3.2 6.4 0.00 0.00 0.00 100 795.6
20260507154758 11 104 3.2 4.8 0.00 0.00 0.00 100 795.6
20260507154246 11 97 3.2 3.2 0.00 0.00 0.00 100 795.6
20260507153734 11 93 3.2 3.2 0.00 0.00 0.00 100 795.6
20260507153233 11 95 3.2 4.8 0.00 0.00 0.00 100 795.6
20260507152722 12 108 3.2 4.8 0.00 0.00 0.00 100 795.6
20260507152214 12 118 3.2 3.2 0.00 0.00 0.00 100 795.6
20260507151700 12 97 3.2 3.2 0.00 0.00 0.00 100 795.6
20260507151159 12 335 3.2 3.2 0.00 0.00 0.00 100 795.6
20260507150648 12 335 3.2 3.2 0.00 0.00 0.00 100 795.6
20260507150136 12 335 3.2 3.2 0.00 0.00 0.00 100 795.6
20260507145625 12 349 3.2 3.2 0.00 0.00 0.00 100 795.6
20260507145125 12 4 3.2 3.2 0.00 0.00 0.00 100 795.6
20260507144614 12 4 3.2 3.2 0.00 0.00 0.00 100 795.6
20260507144103 12 4 3.2 3.2 0.00 0.00 0.00 100 795.6
20260507143553 12 4 3.2 3.2 0.00 0.00 0.00 100 795.6
20260507143041 12 45 3.2 3.2 0.00 0.00 0.00 100 795.6
20260507142543 11 93 3.2 3.2 0.00 0.00 0.00 100 795.6
20260507142029 11 131 3.2 3.2 0.00 0.00 0.00 100 795.6
20260507141518 11 277 3.2 3.2 0.00 0.00 0.00 100 795.6
20260507141007 11 94 3.2 3.2 0.00 0.00 0.00 100 795.6
20260507140507 11 84 3.2 6.4 0.00 0.00 0.00 100 795.6
20260507135956 11 72 3.2 3.2 0.00 0.00 0.00 100 795.6
20260507135445 11 96 3.2 3.2 0.00 0.00 0.00 100 795.6
20260507134934 11 99 3.2 3.2 0.00 0.00 0.00 100 795.6
20260507134423 11 152 3.2 3.2 0.00 0.00 0.00 100 795.6
20260507133923 11 107 3.2 3.2 0.00 0.00 0.00 100 795.6
20260507133412 11 112 3.2 3.2 0.00 0.00 0.00 100 795.6
20260507132904 11 130 3.2 3.2 0.00 0.00 0.00 100 795.6
20260507132350 11 101 3.2 4.8 0.00 0.00 0.00 100 795.6
20260507131849 11 98 6.4 8.0 0.00 0.00 0.00 100 795.6
20260507131339 12 84 3.2 4.8 0.00 0.00 0.00 100 795.6
20260507130317 12 34 4.8 6.4 0.00 0.00 0.00 100 795.6
20260507125812 13 336 6.4 9.7 0.00 0.00 0.00 100 795.6
20260507124750 13 296 11.3 12.9 0.00 0.00 0.00 100 795.6
20260507124239 15 306 3.2 3.2 0.00 0.00 0.00 100 795.6
20260507123738 15 292 3.2 4.8 0.00 0.00 0.00 100 795.6
20260507122714 15 61 3.2 6.4 0.00 0.00 0.00 100 794.3
20260507122204 15 118 3.2 3.2 0.00 0.00 0.00 100 794.3
20260507121703 14 57 3.2 4.8 0.00 0.00 0.00 100 793.3
20260507121153 14 57 3.2 4.8 0.00 0.00 0.00 100 793.3
20260507120641 13 62 4.8 4.8 0.00 0.00 0.00 100 793.3
20260507120131 14 37 3.2 4.8 0.00 0.00 0.00 100 793.3
20260507115620 14 5 4.8 6.4 0.00 0.00 0.00 100 793.3
20260507115120 14 61 4.8 6.4 0.00 0.00 0.00 100 793.3
20260507114608 14 62 4.8 6.4 0.00 0.00 0.00 100 793.3
20260507114058 14 86 3.2 4.8 0.00 0.00 0.00 100 793.3
20260507113549 15 84 3.2 4.8 0.00 0.00 0.00 100 793.3
20260507113046 15 33 3.2 3.2 0.00 0.00 0.00 100 793.3
20260507112535 15 44 8.0 9.7 0.00 0.00 0.00 100 793.3
20260507112024 15 266 3.2 4.8 0.00 0.00 0.00 100 793.3
20260507111513 15 59 4.8 6.4 0.00 0.00 0.00 100 793.3
20260507111002 15 15 3.2 3.2 0.00 0.00 0.00 100 793.3
20260507110502 16 357 3.2 6.4 0.00 0.00 0.00 100 793.3
20260507105951 16 0 3.2 3.2 0.00 0.00 0.00 100 793.3
20260507105439 16 330 4.8 6.4 0.00 0.00 0.00 100 793.3
20260507104928 16 302 4.8 8.0 0.00 0.00 0.00 100 793.3
20260507104427 16 305 6.4 9.7 0.00 0.00 0.00 100 793.3
20260507103918 16 298 11.3 14.5 0.00 0.00 0.00 100 793.3
20260507103403 17 293 6.4 9.7 0.00 0.00 0.00 100 793.3
20260507102351 17 288 9.7 12.9 0.00 0.00 0.00 100 793.3
20260507101839 17 302 9.7 14.5 0.00 0.00 0.00 100 793.3
20260507101327 17 283 3.2 3.2 0.00 0.00 0.00 100 795.2
20260507100816 17 262 4.8 4.8 0.00 0.00 0.00 100 795.2
20260507100315 18 227 3.2 4.8 0.00 0.00 0.00 100 793.0
20260507095805 18 216 4.8 6.4 0.00 0.00 0.00 100 793.0
20260507095253 18 194 4.8 4.8 0.00 0.00 0.00 100 790.4
20260507094743 17 155 4.8 4.8 0.00 0.00 0.00 100 790.4
20260507094234 17 168 4.8 4.8 0.00 0.00 0.00 100 790.4
20260507093731 17 118 3.2 3.2 0.00 0.00 0.00 100 790.4
20260507093219 18 237 3.2 3.2 0.00 0.00 0.00 100 790.4
20260507092709 18 281 3.2 3.2 0.00 0.00 0.00 100 790.4
20260507092157 18 180 4.8 6.4 0.00 0.00 0.00 100 790.4
20260507091647 17 152 4.8 4.8 0.00 0.00 0.00 100 790.4
20260507091146 17 296 3.2 3.2 0.00 0.00 0.00 100 790.4
20260507090635 17 296 3.2 3.2 0.00 0.00 0.00 100 790.4
20260507090124 17 186 3.2 6.4 0.00 0.00 0.00 100 790.4
20260507085614 17 146 4.8 4.8 0.00 0.00 0.00 100 790.4
20260507085113 17 157 4.8 4.8 0.00 0.00 0.00 100 790.4
20260507084050 17 179 4.8 4.8 0.00 0.00 0.00 100 790.4
20260507083539 17 232 3.2 4.8 0.00 0.00 0.00 100 790.4
20260507082527 17 196 4.8 6.4 0.00 0.00 0.00 100 790.4
20260507082016 17 180 4.8 4.8 0.00 0.00 0.00 100 790.4
20260507081505 17 151 6.4 6.4 0.00 0.00 0.00 100 790.4
20260507080954 17 185 6.4 9.7 0.00 0.00 0.00 100 790.4
20260507080453 17 199 6.4 9.7 0.00 0.00 0.00 100 789.2
20260507075942 17 269 4.8 9.7 0.00 0.00 0.00 100 789.2
20260507075431 17 226 3.2 8.0 0.00 0.00 0.00 100 789.2
20260507074923 17 217 6.4 6.4 0.00 0.00 0.00 100 789.2
20260507073904 17 157 4.8 6.4 0.00 0.00 0.00 100 789.2
20260507073354 16 166 3.2 3.2 0.00 0.00 0.00 100 789.2
20260507072853 16 149 4.8 9.7 0.00 0.00 0.00 100 789.2
20260507072342 16 165 4.8 6.4 0.00 0.00 0.00 100 789.2
20260507071831 16 135 4.8 4.8 0.00 0.00 0.00 100 789.2
20260507071321 16 177 4.8 11.3 0.00 0.00 0.00 100 789.2
20260507070820 16 186 4.8 9.7 0.00 0.00 0.00 100 789.2
20260507070310 16 165 4.8 9.7 0.00 0.00 0.00 100 789.2
20260507065758 16 179 4.8 8.0 0.00 0.00 0.00 100 789.2
20260507065250 16 152 3.2 6.4 0.00 0.00 0.00 100 789.2
20260507064236 16 168 4.8 9.7 0.00 0.00 0.00 100 789.2
20260507063724 16 154 3.2 6.4 0.00 0.00 0.00 100 789.2
20260507063214 16 174 4.8 8.0 0.00 0.00 0.00 100 789.2
20260507062702 16 138 4.8 9.7 0.00 0.00 0.00 100 789.2
20260507062203 16 137 4.8 4.8 0.00 0.00 0.00 100 789.2
20260507061651 15 152 4.8 4.8 0.00 0.00 0.00 100 789.2
20260507061141 15 166 4.8 8.0 0.00 0.00 0.00 100 789.2
20260507060629 15 157 4.8 8.0 0.00 0.00 0.00 100 789.2
20260507060119 15 160 3.2 4.8 0.00 0.00 0.00 100 789.2
20260507055621 15 168 4.8 9.7 0.00 0.00 0.00 100 789.2
20260507055107 15 161 3.2 6.4 0.00 0.00 0.00 100 789.2
20260507053545 15 178 4.8 8.0 0.00 0.00 0.00 100 789.2
20260507052523 15 175 4.8 8.0 0.00 0.00 0.00 100 789.2
20260507052012 15 159 3.2 6.4 0.00 0.00 0.00 100 789.2
20260507051501 15 157 3.2 4.8 0.00 0.00 0.00 100 789.2
20260507051001 15 182 3.2 4.8 0.00 0.00 0.00 100 789.2
20260507050450 15 180 3.2 6.4 0.00 0.00 0.00 100 789.2
20260507045937 15 213 3.2 6.4 0.00 0.00 0.00 100 789.2
20260507045433 15 190 6.4 6.4 0.00 0.00 0.00 100 789.2
20260507044922 15 107 6.4 6.4 0.00 0.00 0.00 100 789.2
20260507044411 15 153 3.2 3.2 0.00 0.00 0.00 100 789.2
20260507043901 15 162 4.8 4.8 0.00 0.00 0.00 100 789.2
20260507043400 15 168 3.2 4.8 0.00 0.00 0.00 100 789.2
20260507042849 15 168 4.8 4.8 0.00 0.00 0.00 100 789.2
20260507042338 15 148 3.2 3.2 0.00 0.00 0.00 100 789.2
20260507041827 15 174 3.2 3.2 0.00 0.00 0.00 100 789.2
20260507040817 14 166 4.8 9.7 0.00 0.00 0.00 100 789.2
20260507040308 14 164 6.4 8.0 0.00 0.00 0.00 100 789.2
20260507035754 13 110 3.2 3.2 0.00 0.00 0.00 100 789.2
20260507035243 13 189 3.2 3.2 0.00 0.00 0.00 100 789.2
20260507034743 13 73 4.8 4.8 0.00 0.00 0.00 100 789.2
20260507034232 13 177 3.2 3.2 0.00 0.00 0.00 100 789.2
20260507033721 14 139 3.2 3.2 0.00 0.00 0.00 100 789.2
20260507033210 14 128 1.6 3.2 0.00 0.00 0.00 100 789.2
20260507032659 14 165 3.2 3.2 0.00 0.00 0.00 100 789.2
20260507032158 13 153 3.2 3.2 0.00 0.00 0.00 100 789.2
20260507031648 13 124 3.2 3.2 0.00 0.00 0.00 100 789.2
20260507031136 13 148 3.2 3.2 0.00 0.00 0.00 100 782.9
20260507030627 13 146 3.2 3.2 0.00 0.00 0.00 100 782.9
20260507030123 13 164 3.2 3.2 0.00 0.00 0.00 100 782.9
20260507025613 13 167 4.8 4.8 0.00 0.00 0.00 100 782.9
20260507025101 13 176 3.2 4.8 0.00 0.00 0.00 100 782.9
20260507024551 13 216 3.2 3.2 0.00 0.00 0.00 100 782.9
20260507024039 13 38 4.8 6.4 0.00 0.00 0.00 100 782.9
20260507023540 13 131 4.8 4.8 0.00 0.00 0.00 100 782.9
20260507022225 15 216 3.2 4.8 0.00 0.00 0.00 100 782.9
20260507021011 14 122 4.8 8.0 0.00 0.00 0.00 100 782.9
20260507015758 15 12 3.2 4.8 0.00 0.00 0.00 100 782.9
20260507014559 15 85 4.8 6.4 0.00 0.00 0.00 100 782.9
20260507013350 15 157 4.8 9.7 0.00 0.00 0.00 100 782.9